Regional Weather Roundup
Issued by NWS

Home | Current Version | Previous Version | Text Only | Print | Product List | Glossary On
Versions: 1 2 3 4 5 6 7 8 9 10 11 12 13 14 15 16 17 18 19 20 21 22 23 24 25 26 27 28 29 30 31 32 33 34 35 36 37 38 39 40 41 42 43 44 45 46 47 48 49 50
000
ASUS45 KPSR 100410
RWRAZ

ARIZONA REGIONAL HOURLY WEATHER ROUNDUP
NATIONAL WEATHER SERVICE PHOENIX AZ
900 PM MST WED JUL 09 2014

NOTE: FAIR INDICATES FEW OR NO CLOUDS BELOW 12,000 FEET WITH NO
SIGNIFICANT WEATHER AND/OR OBSTRUCTIONS TO VISIBILITY.

AZZ001>003-036-100500-
NORTHWEST ARIZONA

CITY           SKY/WX    TMP DP  RH WIND       PRES   REMARKS
BULLHEAD CITY  PTCLDY    93 N/A N/A S10       29.80R
KINGMAN        MOCLDY    83  62  49 S8        30.01R
$$

AZZ004>008-015-016-018-100500-
NORTH CENTRAL ARIZONA

CITY           SKY/WX    TMP DP  RH WIND       PRES   REMARKS
GRAND CANYON   CLOUDY    63  57  81 CALM      30.25R
WILLIAMS         N/A     64  54  68 CALM      30.33R
PRESCOTT       CLOUDY    75  53  46 S8        30.15R
FLAGSTAFF      MOCLDY    62  52  69 CALM      30.28R
PAYSON         PTCLDY    75  54  46 CALM      30.17R
PAGE           PTCLDY    87  48  25 SW7       30.01R
$$

AZZ009>014-017-100500-
NORTHEAST ARIZONA

CITY           SKY/WX    TMP DP  RH WIND       PRES   REMARKS
WINSLOW        CLOUDY    78  55  44 E15       30.12R
SAINT JOHNS    MOCLDY    74  51  44 E8        30.19R
WINDOW ROCK    MOCLDY    65  53  65 S12       30.29R
SHOW LOW       CLOUDY    68  48  49 S5        30.26R
$$

AZZ023-100500-
GREATER PHOENIX AREA

CITY           SKY/WX    TMP DP  RH WIND       PRES   REMARKS
PHOENIX        MOCLDY    94  59  31 W12       29.84R
BUCKEYE          N/A     88  61  40 SW6       29.86R
LUKE AFB       NOT AVBL
DEER VALLEY    PTCLDY    91  60  35 SW12      29.86R
SCOTTSDALE     PTCLDY    93  59  31 W7        29.89R
MESA-GATEWAY   CLEAR     93  57  29 SW14      29.89R
CHANDLER       MOCLDY    91  61  35 S13       29.86R
$$

AZZ027-028-100500-
SOUTHWEST MARICOPA COUNTY AND PINAL COUNTY

CITY           SKY/WX    TMP DP  RH WIND       PRES   REMARKS
CASA GRANDE    CLEAR     88  63  42 W5        29.90R
$$

AZZ503-504-507>509-100500-
SOUTHEAST ARIZONA

CITY           SKY/WX    TMP DP  RH WIND       PRES   REMARKS
TUCSON         CLOUDY    83  59  44 SE10      30.02R
DAVIS-MONTHAN  MOCLDY    80  64  59 SE14      30.00R
NOGALES        LGT RAIN  68  65  90 SE6       30.11F
SIERRA VISTA   CLOUDY    70  61  73 SE5       30.15R
DOUGLAS        CLOUDY    71  62  73 W5        30.11R
SAFFORD        MOCLDY    85  55  35 NW13      29.97R
$$

AZZ020-021-025-026-031-100500-
SOUTHWEST ARIZONA

CITY           SKY/WX    TMP DP  RH WIND       PRES   REMARKS
YUMA           PTCLDY    94  63  35 S8        29.79R
$$

CAZ031-033-041-043-047-048-061-100500-
SOUTHERN CALIFORNIA

CITY           SKY/WX    TMP DP  RH WIND       PRES   REMARKS
DOWNTOWN L.A.  MOCLDY    68  61  78 W5        29.91R
L.A. AIRPORT   MOCLDY    68  61  78 W13       29.92R
SAN DIEGO      MOCLDY    70  61  73 CALM      29.95R
BURBANK        CLEAR     68  60  75 S7        29.91R
ONTARIO        PTCLDY    74  60  61 W13       29.91R
RIVERSIDE      CLEAR     75  58  55 W8        29.91R
PALM SPRINGS   PTCLDY    98  48  18 NW16      29.78R
EL CENTRO NAS  PTCLDY    92  69  47 SE14      29.74R
IMPERIAL       CLEAR     94  67  41 SE14      29.74R
BLYTHE         MOCLDY    94  67  41 S12       29.77S
NEEDLES        PTCLDY    92  65  40 W7        29.80R
$$

NVZ020-UTZ003-100500-
SOUTHERN NEVADA-UTAH

CITY           SKY/WX    TMP DP  RH WIND       PRES   REMARKS
LAS VEGAS      MOCLDY    93  58  30 CALM      29.81R
SALT LAKE CITY LGT RAIN  80  53  39 S20G33    29.95F
$$

NMZ009-TXZ055-100500-
NEW MEXICO-WEST TEXAS

CITY           SKY/WX    TMP DP  RH WIND       PRES   REMARKS
ALBUQUERQUE    CLOUDY    77  52  41 VRB3      30.17R
EL PASO        PTCLDY    85  52  32 E7        30.01R
$$


........................KEY........................
SKY/WX - SKY CONDITION/WEATHER
TMP    - TEMPERATURE IN FAHRENHEIT
DP     - DEW POINT IN FAHRENHEIT
RH     - RELATIVE HUMIDITY IN PERCENT
WIND   - DIRECTION AND SPEED IN MILES PER HOUR (MPH)
VRB    - VARIABLE WIND DIRECTION
PRES   - MEAN SEA LEVEL PRESSURE IN INCHES OF MERCURY
         F - FALLING PRESSURE   R - RISING PRESSURE
         S - STEADY PRESSURE
VSB    - VISIBILITY IN MILES
HX     - HEAT INDEX IN FAHRENHEIT
WCI    - WIND CHILL INDEX IN FAHRENHEIT
TC     - TEMPERATURE IN CELSIUS WHICH IS ALSO KNOWN AS
         TEMPERATURE IN CENTIGRADE
AFB    - AIR FORCE BASE
         LUKE AFB IS LUKE AIR FORCE BASE
         DAVIS-MONTHAN IS DAVIS-MONTHAN AIR FORCE BASE
NAS    - NAVAL AIR STATION
         EL CENTRO NAS IS EL CENTRO NAVAL AIR STATION
N/A    - NOT AVAILABLE


USA.gov is the U.S. government's official web portal to all federal, state and local government web resources and services.